Weather History for KLAF - November, 2013

Change the Weather History Date:

Friday, November 1, 2013

  Actual Average Record
Temperature  
Mean Temperature 47 °F 49 °F  
Max Temperature 51 °F 59 °F 77 °F (1999)
Min Temperature 43 °F 39 °F 23 °F (1993)
Degree Days  
Heating Degree Days 18 16  
Month to date heating degree days 18 16  
Since 1 July heating degree days 449 450  
Cooling Degree Days 0 0  
Month to date cooling degree days 0 0  
Year to date cooling degree days 884 982  
Moisture  
Dew Point 43 °F    
Average Humidity 81    
Maximum Humidity 93    
Minimum Humidity 68    
Precipitation  
Precipitation 0.01 in 0.09 in 2.13 in (1992)
Month to date precipitation 0.01 0.09  
Year to date precipitation 35.59 31.19  
Sea Level Pressure  
Sea Level Pressure 29.61 in    
Wind  
Wind Speed 9 mph (WSW)    
Max Wind Speed 29 mph    
Max Gust Speed 39 mph    
Visibility 10 miles    
Events Rain    
T = Trace of Precipitation, MM = Missing Value Source: NWS Daily Summary

Daily Weather History Graph

Daily Weather History Graph

Search for Another Location

Airport or City:

Trip Planner

Search our weather history database for the weather conditions in past years. The results will help you decide how hot, cold, wet, or windy it might be!

Date:

Astronomy

Nov. 01, 2013 Rise Set
Actual Time 8:17 AM EDT 6:44 PM EDT
Civil Twilight 7:49 AM EDT 7:12 PM EDT
Nautical Twilight 7:17 AM EDT 7:44 PM EDT
Astronomical Twilight 6:45 AM EDT 8:16 PM EDT
Moon 6:09 AM EDT (11/1) 5:37 PM EDT (11/1)
Length of Visible Light 11h 23m
Length of Day
10h 26m
Waning Crescent, 4% of the Moon is Illuminated
Nov 1
Waning Crescent
Nov 3
New
Nov 10
First Quarter
Nov 17
Full
Nov 25
Last Quarter

Hourly Weather History & Observations

Time (EDT) Temp. Windchill Dew Point Humidity Pressure Visibility Wind Dir Wind Speed Gust Speed Precip Events Conditions
12:02 AM 50.0 °F - 48.2 °F 94% 29.43 in 10.0 mi West 9.2 mph - N/A   Mostly Cloudy
12:11 AM 50.0 °F - 48.2 °F 94% 29.44 in 10.0 mi West 10.4 mph - N/A   Mostly Cloudy
12:43 AM 50.0 °F - 46.4 °F 87% 29.45 in 10.0 mi West 16.1 mph 24.2 mph N/A   Overcast
12:54 AM 48.9 °F - 46.9 °F 93% 29.45 in 10.0 mi West 16.1 mph 25.3 mph N/A   Overcast
1:19 AM 50.0 °F - 46.4 °F 87% 29.46 in 10.0 mi WSW 11.5 mph - N/A   Overcast
1:54 AM 48.0 °F - 44.1 °F 86% 29.50 in 10.0 mi West 17.3 mph 36.8 mph N/A   Overcast
2:04 AM 48.2 °F - 42.8 °F 82% 29.50 in 10.0 mi West 20.7 mph 31.1 mph N/A   Overcast
2:54 AM 46.0 °F 41.0 °F 43.0 °F 89% 29.52 in 10.0 mi West 10.4 mph 21.9 mph N/A   Scattered Clouds
3:31 AM 46.4 °F 41.1 °F 42.8 °F 87% 29.54 in 10.0 mi West 11.5 mph - N/A   Mostly Cloudy
3:54 AM 46.0 °F 39.9 °F 42.1 °F 86% 29.55 in 10.0 mi WSW 13.8 mph 21.9 mph N/A   Overcast
4:28 AM 44.6 °F 38.8 °F 42.8 °F 93% 29.55 in 10.0 mi WSW 11.5 mph - N/A   Mostly Cloudy
4:54 AM 44.1 °F 39.5 °F 42.1 °F 93% 29.55 in 10.0 mi WSW 8.1 mph - N/A   Scattered Clouds
5:54 AM 44.1 °F 39.0 °F 42.1 °F 93% 29.57 in 10.0 mi WSW 9.2 mph - N/A   Scattered Clouds
6:05 AM 44.6 °F 39.7 °F 42.8 °F 93% 29.57 in 10.0 mi WSW 9.2 mph - N/A   Mostly Cloudy
6:20 AM 44.6 °F 40.7 °F 42.8 °F 93% 29.58 in 10.0 mi WSW 6.9 mph - N/A   Overcast
6:54 AM 45.0 °F 40.1 °F 43.0 °F 93% 29.60 in 10.0 mi SW 9.2 mph - N/A   Overcast
7:44 AM 46.4 °F 40.4 °F 44.6 °F 93% 29.61 in 10.0 mi WSW 13.8 mph - N/A   Overcast
7:54 AM 46.0 °F 40.6 °F 44.1 °F 93% 29.61 in 10.0 mi WSW 11.5 mph - N/A   Overcast
8:54 AM 46.9 °F - 44.1 °F 90% 29.62 in 10.0 mi WSW 11.5 mph - N/A   Overcast
9:44 AM 46.4 °F 41.1 °F 42.8 °F 87% 29.63 in 10.0 mi West 11.5 mph - N/A   Overcast
9:54 AM 46.9 °F - 43.0 °F 86% 29.64 in 10.0 mi WSW 9.2 mph - N/A   Overcast
10:54 AM 48.9 °F - 43.0 °F 80% 29.65 in 10.0 mi WSW 8.1 mph 17.3 mph N/A   Mostly Cloudy
11:54 AM 50.0 °F - 44.1 °F 80% 29.65 in 10.0 mi WSW 10.4 mph 19.6 mph N/A   Mostly Cloudy
12:54 PM 50.0 °F - 43.0 °F 77% 29.66 in 10.0 mi WSW 10.4 mph - N/A   Overcast
1:09 PM 50.0 °F - 42.8 °F 76% 29.65 in 10.0 mi WSW 11.5 mph - N/A   Overcast
1:54 PM 51.1 °F - 43.0 °F 74% 29.65 in 10.0 mi WSW 11.5 mph - N/A   Overcast
2:13 PM 50.0 °F - 42.8 °F 76% 29.65 in 10.0 mi WSW 11.5 mph 18.4 mph N/A   Overcast
2:54 PM 50.0 °F - 41.0 °F 71% 29.65 in 10.0 mi WSW 10.4 mph - N/A   Overcast
3:54 PM 51.1 °F - 41.0 °F 68% 29.66 in 10.0 mi WSW 8.1 mph - N/A   Overcast
4:01 PM 50.0 °F - 42.8 °F 76% 29.65 in 10.0 mi WSW 8.1 mph - N/A   Overcast
4:54 PM 50.0 °F - 42.1 °F 74% 29.67 in 10.0 mi West 8.1 mph - N/A   Overcast
5:54 PM 48.9 °F - 39.9 °F 71% 29.69 in 10.0 mi West 12.7 mph - N/A   Overcast
6:54 PM 48.0 °F - 39.0 °F 71% 29.71 in 10.0 mi West 6.9 mph - N/A   Overcast
7:54 PM 46.9 °F - 39.9 °F 77% 29.73 in 10.0 mi WSW 4.6 mph - N/A   Overcast
8:54 PM 46.0 °F 44.8 °F 42.1 °F 86% 29.74 in 10.0 mi West 3.5 mph - 0.00 in Rain Light Rain
9:46 PM 46.4 °F 42.9 °F 42.8 °F 87% 29.75 in 10.0 mi West 6.9 mph - 0.00 in   Overcast
9:54 PM 46.0 °F 41.9 °F 43.0 °F 89% 29.75 in 10.0 mi West 8.1 mph - 0.00 in Rain Light Rain
10:13 PM 46.4 °F 41.9 °F 42.8 °F 87% 29.75 in 10.0 mi West 9.2 mph - 0.00 in   Overcast
10:54 PM 46.0 °F 41.9 °F 42.1 °F 86% 29.77 in 10.0 mi WNW 8.1 mph - 0.00 in   Overcast
11:54 PM 45.0 °F 41.8 °F 43.0 °F 93% 29.78 in 8.0 mi West 5.8 mph - 0.01 in Rain Light Rain